Tracking 17155 objects as of 28-July-2015
HD Live streaming from Space Station

COSMOS 482 DESCENT CRAFT

Track COSMOS 482 DESCENT CRAFT now!
10-day predictions
COSMOS 482 DESCENT CRAFT is classified as:


NORAD ID: 6073
Int'l Code: 1972-023E
Perigee: 211.9 km
Apogee: 2,922.4 km
Inclination: 52.1 °
Period: 117.3 minutes
Semi major axis: 7938 km
RCS: 0.7153 m2 (medium)
Launch date: March 31, 1972
Source: Commonwealth of Independent States (former USSR) (CIS)
Your satellite tracking list
Your tracking list is empty





NASA's NSSDC Master Catalog

Two Line Element Set (TLE):
1 06073U 72023E   15209.14221014  .00023277  47833-5  12834-3 0  9994
2 06073 052.0684 087.1979 1707263 184.3858 290.4106 12.27501055274987

Source of the keplerian elements: AFSPC

N2YO: 326